When you browse on this site, cookies collect data to enhance your experience and personalize the content and advertising you see.
Visit our Privacy Policy to learn more. By continuing to use the site, you agree to this use of cookies and data.
  • In Austria
  • List of Countries
  • For 7 days
  • Water Temperature
  • Satellite Maps
  • Weather Map
  • News
  • Weather Widgets
  • user-avatar
    Login

    Hourly Weather Lankaran

    Today, 23 January, Wednesday

    Time Temperature Precipitation Wind Pressure Humidity
    00:00 -4°C° 0 mm 3 mps 631 mmHg 46%
    01:00 -3°C° 0 mm 2 mps 631 mmHg 46%
    02:00 -3°C° 0 mm 2 mps 632 mmHg 46%
    03:00 -4°C° 0 mm 2 mps 632 mmHg 49%
    04:00 -4°C° 0 mm 2 mps 632 mmHg 51%
    05:00 -4°C° 0 mm 2 mps 632 mmHg 53%
    06:00 -3°C° 0 mm 1 mps 632 mmHg 55%
    07:00 -2°C° 0 mm 1 mps 633 mmHg 55%
    08:00 -1°C° 0 mm 1 mps 633 mmHg 55%
    09:00 0°C° 0 mm 1 mps 634 mmHg 56%
    10:00 -1°C° 0 mm 2 mps 634 mmHg 56%
    11:00 +1°C° 0 mm 2 mps 634 mmHg 56%
    12:00 +2°C° 0 mm 2 mps 635 mmHg 56%
    13:00 +2°C° 0 mm 2 mps 634 mmHg 57%
    14:00 +2°C° 0 mm 2 mps 634 mmHg 59%
    15:00 +2°C° 0 mm 2 mps 634 mmHg 60%
    16:00 +1°C° 0 mm 2 mps 634 mmHg 65%
    17:00 -2°C° 0 mm 2 mps 633 mmHg 69%
    18:00 -3°C° 0 mm 2 mps 633 mmHg 73%
    19:00 -3°C° 0 mm 2 mps 633 mmHg 67%
    20:00 -3°C° 0 mm 2 mps 633 mmHg 61%
    21:00 -3°C° 0 mm 2 mps 633 mmHg 54%
    22:00 -3°C° 0 mm 2 mps 633 mmHg 51%
    23:00 -3°C° 0 mm 2 mps 633 mmHg 47%

    Tomorrow, 24 January, Thursday

    Time Temperature Precipitation Wind Pressure Humidity
    00:00 -3°C° 0 mm 2 mps 633 mmHg 44%
    01:00 -3°C° 0 mm 2 mps 633 mmHg 44%
    02:00 -3°C° 0 mm 2 mps 633 mmHg 44%
    03:00 -3°C° 0 mm 2 mps 633 mmHg 43%
    04:00 -3°C° 0 mm 2 mps 633 mmHg 44%
    05:00 -3°C° 0 mm 2 mps 633 mmHg 45%
    06:00 -3°C° 0 mm 2 mps 633 mmHg 46%
    07:00 -2°C° 0 mm 2 mps 633 mmHg 45%
    08:00 -1°C° 0 mm 2 mps 634 mmHg 44%
    09:00 +1°C° 0 mm 2 mps 634 mmHg 44%
    10:00 +1°C° 0 mm 3 mps 634 mmHg 45%
    11:00 +2°C° 0 mm 3 mps 635 mmHg 46%
    12:00 +3°C° 0 mm 3 mps 635 mmHg 47%
    13:00 +3°C° 0 mm 3 mps 634 mmHg 49%
    14:00 +3°C° 0 mm 3 mps 634 mmHg 50%
    15:00 +3°C° 0 mm 3 mps 634 mmHg 52%
    16:00 +2°C° 0 mm 3 mps 633 mmHg 55%
    17:00 +1°C° 0 mm 3 mps 633 mmHg 57%
    18:00 0°C° 0 mm 3 mps 633 mmHg 60%
    19:00 -1°C° 0 mm 3 mps 632 mmHg 57%
    20:00 -1°C° 0 mm 3 mps 632 mmHg 54%
    21:00 -2°C° 0 mm 4 mps 632 mmHg 51%
    22:00 -2°C° 0 mm 4 mps 632 mmHg 50%
    23:00 -2°C° 0 mm 4 mps 632 mmHg 50%

    Day after tomorrow, 25 January, Friday

    Time Temperature Precipitation Wind Pressure Humidity
    00:00 -2°C° 0 mm 4 mps 632 mmHg 49%
    01:00 -2°C° 0 mm 4 mps 631 mmHg 50%
    02:00 -2°C° 0 mm 4 mps 631 mmHg 50%
    03:00 -2°C° 0 mm 4 mps 631 mmHg 51%
    04:00 -2°C° 0 mm 4 mps 631 mmHg 52%
    05:00 -1°C° 0 mm 4 mps 631 mmHg 52%
    06:00 -1°C° 0 mm 4 mps 630 mmHg 53%
    07:00 -1°C° 0 mm 4 mps 631 mmHg 52%
    08:00 0°C° 0 mm 4 mps 631 mmHg 51%
    09:00 +1°C° 0 mm 4 mps 631 mmHg 50%
    10:00 +3°C° 0 mm 4 mps 631 mmHg 50%
    11:00 +4°C° 0 mm 4 mps 631 mmHg 49%
    12:00 +5°C° 0 mm 4 mps 632 mmHg 48%
    13:00 +5°C° 0 mm 4 mps 631 mmHg 48%
    14:00 +5°C° 0 mm 4 mps 631 mmHg 48%
    15:00 +5°C° 0 mm 4 mps 631 mmHg 47%
    16:00 +4°C° 0 mm 4 mps 631 mmHg 50%
    17:00 +3°C° 0 mm 4 mps 630 mmHg 52%
    18:00 +1°C° 0 mm 4 mps 630 mmHg 55%
    19:00 +1°C° 0 mm 4 mps 630 mmHg 55%
    20:00 0°C° 0 mm 4 mps 630 mmHg 55%
    21:00 0°C° 0 mm 4 mps 631 mmHg 54%
    22:00 0°C° 0 mm 4 mps 631 mmHg 54%
    23:00 0°C° 0 mm 4 mps 631 mmHg 54%

    26 January, Saturday

    Time Temperature Precipitation Wind Pressure Humidity
    00:00 -1°C° 0 mm 4 mps 631 mmHg 54%
    01:00 -1°C° 0 mm 4 mps 630 mmHg 53%
    02:00 -1°C° 0 mm 4 mps 630 mmHg 52%
    03:00 -1°C° 0 mm 4 mps 630 mmHg 52%
    04:00 -1°C° 0 mm 4 mps 630 mmHg 52%
    05:00 -1°C° 0 mm 4 mps 630 mmHg 53%
    06:00 -1°C° 0 mm 4 mps 630 mmHg 53%
    07:00 0°C° 0 mm 4 mps 631 mmHg 51%
    08:00 +3°C° 0 mm 4 mps 632 mmHg 49%
    09:00 +4°C° 0 mm 4 mps 632 mmHg 46%
    10:00 +5°C° 0 mm 5 mps 632 mmHg 45%
    11:00 +6°C° 0 mm 5 mps 632 mmHg 43%
    12:00 +8°C° 0 mm 5 mps 632 mmHg 41%
    13:00 +8°C° 0 mm 5 mps 632 mmHg 42%
    14:00 +8°C° 0 mm 5 mps 632 mmHg 43%
    15:00 +8°C° 0 mm 5 mps 631 mmHg 44%
    16:00 +7°C° 0 mm 5 mps 631 mmHg 48%
    17:00 +5°C° 0 mm 4 mps 630 mmHg 52%
    18:00 +4°C° 0 mm 4 mps 630 mmHg 56%
    19:00 +4°C° 0 mm 4 mps 630 mmHg 56%
    20:00 +4°C° 0 mm 4 mps 630 mmHg 56%
    21:00 +4°C° 0 mm 4 mps 630 mmHg 55%
    22:00 +4°C° 0 mm 4 mps 630 mmHg 56%
    23:00 +4°C° 0 mm 4 mps 630 mmHg 56%

    27 January, Sunday

    Time Temperature Precipitation Wind Pressure Humidity
    00:00 +4°C° 0 mm 4 mps 629 mmHg 56%
    01:00 +3°C° 0 mm 4 mps 629 mmHg 56%
    02:00 +3°C° 0 mm 4 mps 629 mmHg 56%
    03:00 +3°C° 0 mm 4 mps 629 mmHg 56%
    04:00 +3°C° 0 mm 4 mps 629 mmHg 57%
    05:00 +3°C° 0 mm 4 mps 629 mmHg 58%
    06:00 +3°C° 0 mm 4 mps 629 mmHg 59%
    07:00 +4°C° 0 mm 4 mps 629 mmHg 57%
    08:00 +6°C° 0 mm 5 mps 630 mmHg 54%
    09:00 +7°C° 0 mm 5 mps 631 mmHg 51%
    10:00 +8°C° 0 mm 5 mps 631 mmHg 49%
    11:00 +9°C° 0 mm 6 mps 631 mmHg 47%
    12:00 +10°C° 0 mm 6 mps 631 mmHg 45%
    13:00 +10°C° 0 mm 6 mps 630 mmHg 45%
    14:00 +10°C° 0 mm 6 mps 630 mmHg 45%
    15:00 +10°C° 0 mm 6 mps 630 mmHg 45%
    16:00 +9°C° 0 mm 5 mps 629 mmHg 49%
    17:00 +8°C° 0 mm 5 mps 629 mmHg 54%
    18:00 +7°C° 0 mm 5 mps 629 mmHg 59%
    19:00 +6°C° 0 mm 5 mps 629 mmHg 60%
    20:00 +6°C° 0 mm 5 mps 629 mmHg 61%
    21:00 +6°C° 0 mm 5 mps 629 mmHg 61%
    22:00 +5°C° 0 mm 5 mps 629 mmHg 62%
    23:00 +5°C° 0 mm 5 mps 629 mmHg 62%

    28 January, Monday

    Time Temperature Precipitation Wind Pressure Humidity
    00:00 +5°C° 0 mm 5 mps 629 mmHg 63%
    01:00 +5°C° 0 mm 4 mps 629 mmHg 64%
    02:00 +5°C° 0 mm 4 mps 629 mmHg 64%
    03:00 +4°C° 0 mm 4 mps 629 mmHg 65%
    04:00 +4°C° 0 mm 3 mps 629 mmHg 66%
    05:00 +4°C° 0 mm 3 mps 629 mmHg 67%
    06:00 +5°C° 0 mm 2 mps 629 mmHg 69%
    07:00 +4°C° 0.8 mm 2 mps 628 mmHg 75%
    08:00 +3°C° 0.8 mm 2 mps 628 mmHg 81%
    09:00 +3°C° 0.8 mm 2 mps 628 mmHg 87%
    10:00 +3°C° 1.6 mm 2 mps 627 mmHg 87%
    11:00 +3°C° 1.6 mm 2 mps 627 mmHg 87%
    12:00 +3°C° 1.6 mm 2 mps 626 mmHg 86%
    13:00 +3°C° 1.1 mm 2 mps 626 mmHg 86%
    14:00 +3°C° 1.1 mm 2 mps 626 mmHg 85%
    15:00 +3°C° 1.1 mm 2 mps 625 mmHg 85%
    16:00 +3°C° 0.8 mm 2 mps 626 mmHg 85%
    17:00 +3°C° 0.8 mm 2 mps 626 mmHg 85%
    18:00 +3°C° 0.8 mm 2 mps 627 mmHg 85%
    19:00 +3°C° 0.1 mm 2 mps 627 mmHg 81%
    20:00 +1°C° 0.1 mm 3 mps 628 mmHg 78%
    21:00 +1°C° 0.1 mm 3 mps 628 mmHg 74%
    22:00 +1°C° 0 mm 3 mps 628 mmHg 72%
    23:00 0°C° 0 mm 3 mps 629 mmHg 69%
    Show more